LEO Vantage 1

operational
NORAD ID: 43113 Int'l Des: 2018-004 Owner: TCANL Country: CA
LEORETROGRADE

Über LEO Vantage 1

Beschreibung wird geladen...

Live-Position

3D-Globus wird geladen...

Nächste Überflüge

Höhenverlauf

Altitude vs Time

uPlot chart will show altitude changes over time

Zweizeiliger Elementsatz

1 43113U 18004C 26063.31879630 .00006456 00000-0 44658-3 0 9990
2 43113 99.2485 327.9417 0353352 41.3399 321.3978 14.67122514422109
Epoch: 4. März 2026 • Age: 21 hours

Aktueller Status

Höhe 639.5 km
Geschwindigkeit 7.56 km/s
Subsatellitenpunkt -41.16°S, 134.36°W
Startdatum 12. Jan. 2018
Alter 8.1 years
Typ other

Technische Details

Klassifizierung Payload
Masse 100.00 kg
Trockenmasse 100.00 kg
Gesamtmasse 100.00 kg
Länge 0.70 m
Durchmesser 0.70 m
Spannweite 1.00 m
Form Box +dish
Hersteller SSTLA
Bus-Typ SSTL-42
Phasenstatus In Orbit
Besitzer/Staat TCANL/CA

Große Konstellationen

Loading constellations...